EJA459 KPVD-KBOS

Flight info

Callsign EJA459
Flight time 0h 21m
Altitude 11000
Route WOONS
Aircraft C750/M-SBDE3FGHRWXY/S

Departure

Time 2026-05-05 20:29
Airport Rhode Island T. F. Green International Airport (KPVD)

Arrival

Time 2026-05-05 20:50
Airport Boston Logan International Airport (KBOS)
Time Latitude Longitude Altitude Speed Heading
2026-05-05 19:58 41.73203 -71.42608 55 ft 0 kts
2026-05-05 20:21 41.73207 -71.42612 55 ft 1 kts 321°
2026-05-05 20:22 41.73204 -71.42621 55 ft 1 kts 248°
2026-05-05 20:22 41.73204 -71.42622 51 ft 0 kts 244°
2026-05-05 20:25 41.73196 -71.42634 53 ft 2 kts 223°
2026-05-05 20:25 41.73191 -71.42640 55 ft 0 kts 223°
2026-05-05 20:26 41.73187 -71.42646 52 ft 4 kts 224°
2026-05-05 20:26 41.73176 -71.42684 56 ft 6 kts 266°
2026-05-05 20:26 41.73174 -71.42749 53 ft 5 kts 266°
2026-05-05 20:27 41.73172 -71.42807 56 ft 9 kts 265°
2026-05-05 20:27 41.73170 -71.42899 56 ft 14 kts 272°
2026-05-05 20:27 41.73167 -71.43022 57 ft 10 kts 268°
2026-05-05 20:27 41.73166 -71.43044 57 ft 4 kts 268°
2026-05-05 20:28 41.73162 -71.43133 57 ft 11 kts 258°
2026-05-05 20:28 41.73112 -71.43161 58 ft 8 kts 148°
2026-05-05 20:28 41.73101 -71.43149 58 ft 0 kts 140°
2026-05-05 20:29 41.73045 -71.43089 58 ft 48 kts 141°
2026-05-05 20:29 41.72484 -71.42493 130 ft 132 kts 144°
2026-05-05 20:29 41.71778 -71.41725 777 ft 137 kts 147°
2026-05-05 20:29 41.71002 -71.40872 1467 ft 140 kts 160°
2026-05-05 20:30 41.70160 -71.40355 2424 ft 134 kts 168°
2026-05-05 20:30 41.69271 -71.39818 3157 ft 144 kts 166°
2026-05-05 20:30 41.68363 -71.39261 4051 ft 144 kts 167°
2026-05-05 20:30 41.67408 -71.38668 4704 ft 165 kts 167°
2026-05-05 20:31 41.66218 -71.38491 4879 ft 187 kts 202°
2026-05-05 20:31 41.65240 -71.39746 5090 ft 217 kts 242°
2026-05-05 20:31 41.64847 -71.41783 5410 ft 235 kts 255°
2026-05-05 20:31 41.64582 -71.43970 5754 ft 242 kts 258°
2026-05-05 20:32 41.64820 -71.46271 5998 ft 256 kts 277°
2026-05-05 20:32 41.65318 -71.48550 6266 ft 259 kts 285°
2026-05-05 20:32 41.66416 -71.50534 6450 ft 273 kts 307°
2026-05-05 20:32 41.67455 -71.51535 6583 ft 284 kts 322°
2026-05-05 20:33 41.69391 -71.52334 6775 ft 302 kts 345°
2026-05-05 20:33 41.71512 -71.52316 7020 ft 305 kts 354°
2026-05-05 20:33 41.74348 -71.52137 7092 ft 307 kts 355°
2026-05-05 20:33 41.75784 -71.52028 7089 ft 304 kts 355°
2026-05-05 20:34 41.77887 -71.51873 7083 ft 300 kts 355°
2026-05-05 20:34 41.79961 -71.51735 7084 ft 297 kts 355°
2026-05-05 20:34 41.82016 -71.51599 7055 ft 295 kts 355°
2026-05-05 20:34 41.84056 -71.51458 7054 ft 292 kts 354°
2026-05-05 20:35 41.86077 -71.51318 7058 ft 290 kts 354°
2026-05-05 20:35 41.88066 -71.51183 7054 ft 292 kts 355°
2026-05-05 20:35 41.90126 -71.51049 7058 ft 300 kts 355°
2026-05-05 20:35 41.92254 -71.50902 7081 ft 305 kts 355°
2026-05-05 20:36 41.94365 -71.50679 7043 ft 315 kts
2026-05-05 20:36 41.96475 -71.49675 7057 ft 326 kts 19°
2026-05-05 20:36 41.98542 -71.48365 7078 ft 330 kts 21°
2026-05-05 20:36 42.00600 -71.47007 7080 ft 327 kts 21°
2026-05-05 20:37 42.02628 -71.45657 7074 ft 323 kts 21°
2026-05-05 20:37 42.04635 -71.44323 7061 ft 320 kts 21°
2026-05-05 20:37 42.06624 -71.43005 7049 ft 317 kts 21°
2026-05-05 20:37 42.08585 -71.41688 7050 ft 313 kts 21°
2026-05-05 20:38 42.10529 -71.40382 7056 ft 311 kts 21°
2026-05-05 20:38 42.12468 -71.39091 7052 ft 310 kts 21°
2026-05-05 20:38 42.14396 -71.37813 7038 ft 309 kts 21°
2026-05-05 20:38 42.16321 -71.36531 7037 ft 307 kts 21°
2026-05-05 20:39 42.18230 -71.35253 7034 ft 306 kts 21°
2026-05-05 20:39 42.20138 -71.33984 7001 ft 305 kts 21°
2026-05-05 20:39 42.22043 -71.32717 6996 ft 304 kts 21°
2026-05-05 20:39 42.23940 -71.31449 6992 ft 304 kts 21°
2026-05-05 20:40 42.25832 -71.30185 6980 ft 303 kts 21°
2026-05-05 20:40 42.27713 -71.28928 6994 ft 301 kts 21°
2026-05-05 20:40 42.29589 -71.27671 6995 ft 301 kts 21°
2026-05-05 20:40 42.31464 -71.26412 6991 ft 300 kts 21°
2026-05-05 20:41 42.33331 -71.25159 6984 ft 300 kts 21°
2026-05-05 20:41 42.35204 -71.23906 7026 ft 301 kts 21°
2026-05-05 20:41 42.37119 -71.22622 6654 ft 314 kts 21°
2026-05-05 20:41 42.39111 -71.21304 6303 ft 322 kts 21°
2026-05-05 20:42 42.41141 -71.19985 5936 ft 323 kts 21°
2026-05-05 20:42 42.43144 -71.18679 5565 ft 323 kts 21°
2026-05-05 20:42 42.45192 -71.17341 5194 ft 323 kts 21°
2026-05-05 20:42 42.47219 -71.16032 4838 ft 322 kts 22°
2026-05-05 20:43 42.49231 -71.14777 4470 ft 321 kts 21°
2026-05-05 20:43 42.51260 -71.13536 4100 ft 319 kts 21°
2026-05-05 20:43 42.53279 -71.12319 3723 ft 315 kts 21°
2026-05-05 20:43 42.55276 -71.11138 3349 ft 311 kts 21°
2026-05-05 20:44 42.57044 -71.09511 2865 ft 310 kts 49°
2026-05-05 20:44 42.57940 -71.06957 2601 ft 295 kts 84°
2026-05-05 20:44 42.57877 -71.04285 2454 ft 275 kts 104°
2026-05-05 20:44 42.57569 -71.01805 2368 ft 257 kts 106°
2026-05-05 20:45 42.56994 -70.97356 2117 ft 223 kts 114°
2026-05-05 20:45 42.56095 -70.95825 1845 ft 201 kts 156°
2026-05-05 20:45 42.54844 -70.95405 1922 ft 174 kts 176°
2026-05-05 20:46 42.53704 -70.95196 1990 ft 160 kts 176°
2026-05-05 20:46 42.52617 -70.94985 1972 ft 156 kts 175°
2026-05-05 20:46 42.51548 -70.94772 1972 ft 155 kts 176°
2026-05-05 20:46 42.50477 -70.94546 1971 ft 156 kts 176°
2026-05-05 20:47 42.49403 -70.94541 1976 ft 152 kts 185°
2026-05-05 20:47 42.48389 -70.94823 1986 ft 148 kts 197°
2026-05-05 20:47 42.47411 -70.95250 1996 ft 149 kts 199°
2026-05-05 20:47 42.46387 -70.95723 1871 ft 162 kts 200°
2026-05-05 20:48 42.45332 -70.96233 1674 ft 161 kts 200°
2026-05-05 20:48 42.44272 -70.96749 1445 ft 162 kts 200°
2026-05-05 20:48 42.43233 -70.97252 1242 ft 152 kts 200°
2026-05-05 20:48 42.42299 -70.97706 1043 ft 135 kts 200°
2026-05-05 20:49 42.41378 -70.98143 935 ft 146 kts 199°
2026-05-05 20:49 42.40387 -70.98613 732 ft 153 kts 201°
2026-05-05 20:49 42.39422 -70.99127 405 ft 142 kts 202°
2026-05-05 20:49 42.38562 -70.99521 241 ft 126 kts 194°
2026-05-05 20:50 42.37773 -70.99899 110 ft 112 kts 197°
2026-05-05 20:50 42.37092 -71.00224 27 ft 92 kts 197°
2026-05-05 20:50 42.36587 -71.00468 22 ft 56 kts 200°
2026-05-05 20:50 42.36487 -71.00536 22 ft 5 kts 303°
2026-05-05 20:51 42.36552 -71.00621 23 ft 17 kts 314°
2026-05-05 20:51 42.36632 -71.00729 22 ft 16 kts 315°
2026-05-05 20:51 42.36710 -71.00832 22 ft 15 kts 315°
2026-05-05 20:51 42.36785 -71.00934 22 ft 17 kts 315°
2026-05-05 20:52 42.36869 -71.01046 22 ft 17 kts 316°
2026-05-05 20:52 42.36949 -71.01153 22 ft 16 kts 315°
2026-05-05 20:52 42.37039 -71.01273 23 ft 20 kts 315°
2026-05-05 20:52 42.37152 -71.01424 22 ft 25 kts 315°
2026-05-05 20:53 42.37274 -71.01587 22 ft 24 kts 315°
2026-05-05 20:53 42.37384 -71.01737 23 ft 15 kts 308°
2026-05-05 20:53 42.37364 -71.01846 23 ft 10 kts 223°
2026-05-05 20:53 42.37313 -71.01881 22 ft 9 kts 195°
2026-05-05 20:54 42.37260 -71.01918 23 ft 9 kts 218°
2026-05-05 20:54 42.37232 -71.01987 22 ft 8 kts 274°
2026-05-05 20:54 42.37270 -71.02049 22 ft 11 kts 315°
2026-05-05 20:54 42.37332 -71.02131 22 ft 13 kts 315°
2026-05-05 20:55 42.37376 -71.02159 23 ft 6 kts 15°
2026-05-05 20:55 42.37403 -71.02163 23 ft 5 kts 311°
2026-05-05 20:55 42.37411 -71.02175 23 ft 0 kts 313°